CST,Max TemperatureF,Mean TemperatureF,Min TemperatureF,Max Dew PointF,MeanDew PointF,Min DewpointF,Max Humidity, Mean Humidity, Min Humidity, Max Sea Level PressureIn, Mean Sea Level PressureIn, Min Sea Level PressureIn, Max VisibilityMiles, Mean VisibilityMiles, Min VisibilityMiles, Max Wind SpeedMPH, Mean Wind SpeedMPH, Max Gust SpeedMPH,PrecipitationIn, CloudCover, Events, WindDirDegrees
2014-1-1,0,-7,-14,-9,-14,-19,78,69,62,30.49,30.43,30.39,10,10,10,6,2,,0.00,7,,23
2014-1-2,0,-13,-26,-16,-23,-33,81,68,42,30.46,30.42,30.33,10,10,10,6,1,,0.00,0,,274
2014-1-3,24,0,-24,21,-2,-31,88,73,64,30.33,29.82,29.39,10,10,2,22,8,30,0.00,6,Snow,182
2014-1-4,27,12,-4,26,5,-16,94,70,55,30.21,29.84,29.36,10,9,2,18,11,24,0.00,4,Snow,309
2014-1-5,-5,-13,-22,-16,-22,-32,81,65,54,30.34,30.28,30.22,10,10,7,13,7,20,0.00,1,,313
2014-1-6,-13,-19,-25,-26,-30,-34,69,62,51,30.24,30.17,30.09,10,9,4,16,9,24,0.00,3,,279
2014-1-7,0,-11,-22,-11,-20,-30,80,70,61,30.23,30.12,30.07,10,10,10,10,6,,0.00,2,,258
2014-1-8,-2,-14,-26,-14,-24,-33,79,70,57,30.44,30.38,30.24,10,10,10,6,1,,0.00,0,,271
2014-1-9,17,-5,-27,13,-5,-35,88,70,53,30.40,30.14,29.90,10,10,7,17,6,23,0.00,3,,172
2014-1-10,27,22,16,27,22,13,99,95,87,29.89,29.68,29.46,7,3,1,15,9,21,0.00,8,Snow,171
2014-1-11,31,26,20,28,25,19,100,92,80,29.63,29.53,29.44,10,6,1,14,7,20,0.00,6,,273
2014-1-12,37,28,20,29,26,19,99,81,69,29.61,29.43,29.34,10,9,4,14,8,23,0.16,3,Rain-Snow,200
2014-1-13,33,26,19,28,20,14,92,75,62,29.63,29.57,29.45,10,10,10,15,8,21,0.00,6,,277
2014-1-14,22,11,0,19,9,-3,93,80,67,30.07,29.82,29.54,10,7,1,14,7,20,0.00,5,Snow,354
2014-1-15,22,8,-6,18,1,-11,88,81,68,30.09,29.84,29.34,10,8,1,16,7,24,0.00,6,Snow,221
2014-1-16,31,20,8,30,11,-2,94,75,58,29.81,29.52,29.28,10,9,2,23,11,32,0.00,8,Snow,298
2014-1-17,13,6,-1,3,-1,-6,83,70,54,30.00,29.92,29.79,10,10,10,15,9,21,0.00,2,,319
2014-1-18,19,12,4,13,5,-2,85,71,55,29.90,29.77,29.65,10,9,2,15,5,21,0.01,5,Snow,153
2014-1-19,30,24,17,28,21,13,92,83,75,29.69,29.53,29.43,10,10,4,17,9,22,0.01,6,Snow,287
2014-1-20,23,8,-10,19,-2,-22,87,66,45,30.42,30.06,29.69,10,9,2,15,8,22,0.00,5,Snow,16
2014-1-21,0,-12,-24,-4,-17,-30,83,68,54,30.42,30.25,29.97,10,8,1,9,5,,0.00,3,Snow,241
2014-1-22,1,-3,-7,-4,-10,-16,82,67,51,30.42,30.09,29.91,10,7,2,20,8,29,0.00,5,Snow,320
2014-1-23,-2,-12,-21,-10,-20,-27,79,69,55,30.66,30.51,30.11,10,10,10,13,7,17,0.00,0,,269
2014-1-24,28,14,-1,26,13,-9,94,76,49,30.08,29.60,29.41,10,8,1,22,13,31,0.00,7,Snow,254
2014-1-25,16,7,-2,3,-11,-16,77,52,37,29.83,29.72,29.53,10,9,2,22,13,33,0.00,1,Snow,301
2014-1-26,11,3,-6,3,-4,-15,83,74,59,29.97,29.53,29.33,10,5,1,22,8,33,0.00,7,Snow,313
2014-1-27,-6,-14,-23,-17,-24,-31,66,59,49,30.33,30.24,29.99,10,10,7,18,12,23,0.00,0,Snow,285
2014-1-28,-4,-12,-21,-13,-20,-27,75,66,54,30.30,30.17,30.01,10,10,7,17,9,22,0.00,1,,253
2014-1-29,25,9,-7,14,-2,-14,76,61,43,30.00,29.77,29.53,10,10,10,16,10,25,0.00,1,,214
2014-1-30,23,8,-6,15,3,-15,89,70,49,30.00,29.68,29.53,10,7,1,17,7,22,0.00,4,Snow,332
2014-1-31,6,-6,-17,-7,-14,-22,82,70,53,30.09,30.04,30.00,10,10,10,14,6,17,0.00,0,,230